K5GHS-1 Weather Reports


Display with metric or nautical units.
time (UTC)temp
F
wind
direction
speed
MPH
gust
MPH
rain 1hr
in
rain 24hr
in
rain mn
in
humidity
%
barometer
mb
20260905085218 82 72 0.0 0.0 0.00 0.00 0.00 71 1011.7
20260905084713 82 76 0.0 0.0 0.00 0.00 0.00 71 1011.7
20260905084213 83 77 0.0 0.0 0.00 0.00 0.00 70 1011.9
20260905083708 83 73 0.0 0.0 0.00 0.00 0.00 70 1011.8
20260905083204 83 49 0.0 1.0 0.00 0.00 0.00 69 1011.5
20260905082659 83 337 0.0 1.0 0.00 0.00 0.00 70 1011.7
20260905082154 82 73 0.0 0.0 0.00 0.00 0.00 71 1011.8
20260905081649 82 76 0.0 0.0 0.00 0.00 0.00 71 1011.7
20260905081145 82 67 0.0 1.0 0.00 0.00 0.00 72 1011.6
20260905080644 82 71 0.0 1.0 0.00 0.00 0.00 72 1011.7
20260905080143 82 70 0.0 0.0 0.00 0.00 0.00 72 1011.9
20260905075643 82 71 0.0 0.0 0.00 0.00 0.00 72 1011.7
20260905075142 82 80 0.0 0.0 0.00 0.00 0.00 72 1011.7
20260905074641 83 66 0.0 0.0 0.00 0.00 0.00 72 1011.7
20260905074137 83 71 0.0 0.0 0.00 0.00 0.00 71 1011.6
20260905073633 83 71 0.0 0.0 0.00 0.00 0.00 71 1012.0
20260905073128 83 68 0.0 0.0 0.00 0.00 0.00 71 1011.7
20260905072627 84 74 0.0 0.0 0.00 0.00 0.00 70 1011.9
20260905072123 84 71 0.0 0.0 0.00 0.00 0.00 70 1012.0
20260905071619 84 71 0.0 0.0 0.00 0.00 0.00 69 1011.9
20260905071115 84 71 0.0 0.0 0.00 0.00 0.00 69 1012.0
20260905070610 85 73 0.0 0.0 0.00 0.00 0.00 69 1012.1
20260905070106 85 71 0.0 0.0 0.00 0.00 0.00 69 1012.0
20260905065603 85 67 0.0 0.0 0.00 0.00 0.00 69 1012.1
20260905065058 85 67 0.0 1.0 0.00 0.00 0.00 68 1012.0
20260905064553 85 72 0.0 0.0 0.00 0.00 0.00 69 1012.1
20260905064049 85 69 0.0 0.0 0.00 0.00 0.00 68 1012.0
20260905063547 85 75 0.0 1.0 0.00 0.00 0.00 68 1012.0
20260905063044 85 78 0.0 0.0 0.00 0.00 0.00 68 1012.0
20260905062539 85 74 0.0 0.0 0.00 0.00 0.00 68 1012.2
20260905062033 85 72 0.0 0.0 0.00 0.00 0.00 69 1012.1
20260905061528 85 67 0.0 0.0 0.00 0.00 0.00 68 1012.2
20260905061027 85 86 0.0 0.0 0.00 0.00 0.00 68 1012.1
20260905060524 85 74 0.0 0.0 0.00 0.00 0.00 68 1012.0
20260905060019 85 70 0.0 0.0 0.00 0.00 0.00 67 1012.0
20260905055517 85 73 0.0 1.0 0.00 0.00 0.00 67 1012.0
20260905055012 86 72 0.0 0.0 0.00 0.00 0.00 66 1012.0
20260905054508 86 72 0.0 0.0 0.00 0.00 0.00 66 1011.9
20260905054004 86 71 0.0 2.0 0.00 0.00 0.00 66 1011.8
20260905053457 86 72 0.0 0.0 0.00 0.00 0.00 65 1012.1
20260905052953 86 81 0.0 1.0 0.00 0.00 0.00 65 1012.0
20260905052453 86 76 0.0 1.0 0.00 0.00 0.00 65 1011.8
20260905051952 86 81 0.0 1.0 0.00 0.00 0.00 65 1011.9
20260905051447 86 75 0.0 0.0 0.00 0.00 0.00 64 1011.9
20260905050945 86 82 0.0 0.0 0.00 0.00 0.00 64 1011.8
20260905050440 86 75 0.0 0.0 0.00 0.00 0.00 63 1011.6
20260905045937 87 76 0.0 0.0 0.00 0.00 0.00 63 1011.8
20260905045432 87 76 0.0 0.0 0.00 0.00 0.00 62 1011.8
20260905044927 87 75 0.0 0.0 0.00 0.00 0.00 62 1011.8
20260905044422 87 80 0.0 1.0 0.00 0.00 0.00 62 1011.8
20260905043921 87 74 0.0 0.0 0.00 0.00 0.00 62 1012.0
20260905043420 87 75 0.0 0.0 0.00 0.00 0.00 62 1011.8
20260905042915 87 84 0.0 1.0 0.00 0.00 0.00 62 1011.7
20260905042410 86 86 0.0 1.0 0.00 0.00 0.00 62 1012.0
20260905041905 86 78 0.0 0.0 0.00 0.00 0.00 63 1011.9
20260905041402 86 92 0.0 0.0 0.00 0.00 0.00 63 1011.8
20260905040901 86 74 0.0 0.0 0.00 0.00 0.00 63 1012.0
20260905040355 86 92 0.0 0.0 0.00 0.00 0.00 63 1011.7
20260905035854 86 86 0.0 0.0 0.00 0.00 0.00 63 1012.0
20260905035350 87 74 0.0 0.0 0.00 0.00 0.00 63 1011.7
20260905034846 87 73 0.0 0.0 0.00 0.00 0.00 63 1011.6
20260905034342 87 73 0.0 0.0 0.00 0.00 0.00 63 1011.8
20260905033840 87 79 0.0 0.0 0.00 0.00 0.00 63 1011.8
20260905033336 87 78 0.0 0.0 0.00 0.00 0.00 63 1011.6
20260905032835 87 73 0.0 0.0 0.00 0.00 0.00 63 1011.8
20260905032331 87 73 0.0 0.0 0.00 0.00 0.00 63 1011.8
20260905031826 87 73 0.0 0.0 0.00 0.00 0.00 62 1012.0
20260905031322 88 74 0.0 1.0 0.00 0.00 0.00 61 1011.6
20260905030816 88 91 1.0 1.0 0.00 0.00 0.00 61 1011.7
20260905030312 88 73 0.0 0.0 0.00 0.00 0.00 62 1011.6
20260905025811 88 72 0.0 1.0 0.00 0.00 0.00 61 1011.5
20260905025307 88 82 0.0 1.0 0.00 0.00 0.00 61 1011.4
20260905024803 88 88 0.0 1.0 0.00 0.00 0.00 61 1011.5
20260905024258 88 80 1.0 1.0 0.00 0.00 0.00 61 1011.5
20260905023753 88 73 0.0 0.0 0.00 0.00 0.00 61 1011.5
20260905023248 89 81 1.0 1.0 0.00 0.00 0.00 61 1011.4
20260905022747 89 79 0.0 0.0 0.00 0.00 0.00 61 1011.2
20260905022243 89 65 0.0 2.0 0.00 0.00 0.00 61 1011.2
20260905021743 89 73 0.0 1.0 0.00 0.00 0.00 60 1011.1
20260905021237 89 107 1.0 3.0 0.00 0.00 0.00 60 1011.1
20260905020732 89 84 1.0 2.0 0.00 0.00 0.00 59 1010.9
20260905020227 89 78 0.0 2.0 0.00 0.00 0.00 59 1010.8
20260905015726 90 101 0.0 2.0 0.00 0.00 0.00 59 1011.0
20260905015221 90 78 0.0 2.0 0.00 0.00 0.00 58 1010.9
20260905014720 90 72 1.0 1.0 0.00 0.00 0.00 58 1010.9
20260905014216 90 72 1.0 2.0 0.00 0.00 0.00 57 1010.6
20260905013711 90 41 1.0 2.0 0.00 0.00 0.00 57 1010.5
20260905013207 91 82 1.0 1.0 0.00 0.00 0.00 57 1010.5
20260905012702 91 107 0.0 2.0 0.00 0.00 0.00 57 1010.4
20260905012158 91 82 1.0 3.0 0.00 0.00 0.00 56 1010.7
20260905011654 91 79 1.0 6.0 0.00 0.00 0.00 56 1010.5
20260905011150 92 109 0.0 1.0 0.00 0.00 0.00 55 1010.5
20260905010644 92 81 0.0 3.0 0.00 0.00 0.00 55 1010.2
20260905010140 92 102 3.0 3.0 0.00 0.00 0.00 54 1010.3
20260905005636 92 71 2.0 2.0 0.00 0.00 0.00 54 1010.1
20260905005132 92 84 0.0 2.0 0.00 0.00 0.00 53 1010.3
20260905004632 93 86 2.0 5.0 0.00 0.00 0.00 51 1010.2
20260905004127 93 80 1.0 2.0 0.00 0.00 0.00 47 1010.3
20260905003622 93 85 0.0 1.0 0.00 0.00 0.00 47 1009.9
20260905003118 94 94 3.0 5.0 0.00 0.00 0.00 46 1010.0
20260905002613 94 83 1.0 1.0 0.00 0.00 0.00 47 1010.3
20260905002108 94 73 0.0 0.0 0.00 0.00 0.00 47 1010.0
20260905001603 94 96 1.0 1.0 0.00 0.00 0.00 47 1009.7
20260905001057 94 68 2.0 6.0 0.00 0.00 0.00 47 1009.9
20260905000552 94 89 0.0 1.0 0.00 0.00 0.00 47 1010.0
20260905000048 95 90 1.0 5.0 0.00 0.00 0.00 46 1009.9
20260904235543 95 82 0.0 3.0 0.00 0.00 0.00 47 1009.8
20260904235043 95 99 0.0 2.0 0.00 0.00 0.00 47 1010.0
20260904234543 95 77 0.0 2.0 0.00 0.00 0.00 48 1009.7
20260904234039 95 64 2.0 3.0 0.00 0.00 0.00 47 1009.8
20260904233533 95 134 3.0 6.0 0.00 0.00 0.00 47 1009.9
20260904233030 95 99 1.0 6.0 0.00 0.00 0.00 48 1010.0
20260904232526 95 92 1.0 3.0 0.00 0.00 0.00 48 1009.9
20260904232022 95 97 2.0 2.0 0.00 0.00 0.00 49 1009.9
20260904231518 95 74 3.0 5.0 0.00 0.00 0.00 48 1009.9
20260904231013 95 101 2.0 2.0 0.00 0.00 0.00 48 1009.9
20260904230512 95 69 3.0 5.0 0.00 0.00 0.00 49 1009.8
20260904230008 95 138 3.0 5.0 0.00 0.00 0.00 49 1009.9
20260904225505 96 88 2.0 5.0 0.00 0.00 0.00 47 1009.7
20260904225004 96 98 1.0 6.0 0.00 0.00 0.00 47 1009.9
20260904224500 95 68 3.0 5.0 0.00 0.00 0.00 48 1009.7
20260904224000 96 88 1.0 3.0 0.00 0.00 0.00 48 1010.0
20260904223459 96 95 5.0 7.0 0.00 0.00 0.00 47 1009.9
20260904222955 96 74 3.0 3.0 0.00 0.00 0.00 47 1010.0
20260904222450 98 81 1.0 5.0 0.00 0.00 0.00 46 1010.0
20260904221944 99 68 1.0 3.0 0.00 0.00 0.00 44 1010.1
20260904221439 99 86 0.0 2.0 0.00 0.00 0.00 45 1010.0
20260904220934 98 101 2.0 5.0 0.00 0.00 0.00 44 1009.9
20260904220428 98 105 2.0 6.0 0.00 0.00 0.00 44 1010.1
20260904215923 99 73 0.0 1.0 0.00 0.00 0.00 43 1009.9
20260904215418 98 82 0.0 5.0 0.00 0.00 0.00 44 1009.9
20260904214914 99 74 0.0 3.0 0.00 0.00 0.00 42 1010.2
20260904214410 99 101 1.0 1.0 0.00 0.00 0.00 43 1010.3
20260904213908 98 128 1.0 3.0 0.00 0.00 0.00 44 1010.2
20260904213403 98 176 1.0 8.0 0.00 0.00 0.00 44 1010.4
20260904212859 98 89 3.0 5.0 0.00 0.00 0.00 43 1010.5
20260904212358 98 78 0.0 2.0 0.00 0.00 0.00 44 1010.3
20260904211848 98 90 0.0 2.0 0.00 0.00 0.00 44 1010.3
20260904211343 97 92 2.0 6.0 0.00 0.00 0.00 44 1010.5
20260904210838 96 91 2.0 3.0 0.00 0.00 0.00 46 1010.5
20260904210332 96 97 2.0 3.0 0.00 0.00 0.00 46 1010.6
20260904205829 97 80 2.0 3.0 0.00 0.00 0.00 46 1010.7
20260904205324 97 109 2.0 3.0 0.00 0.00 0.00 46 1010.6
20260904204821 97 94 1.0 2.0 0.00 0.00 0.00 47 1010.9
20260904204316 98 176 1.0 5.0 0.00 0.00 0.00 46 1010.8
20260904203812 98 84 1.0 3.0 0.00 0.00 0.00 45 1010.9
20260904203309 98 124 1.0 2.0 0.00 0.00 0.00 45 1011.0
20260904202804 96 99 1.0 2.0 0.00 0.00 0.00 47 1011.0
20260904202300 97 66 2.0 3.0 0.00 0.00 0.00 47 1011.0
20260904201756 97 76 0.0 3.0 0.00 0.00 0.00 47 1011.0
20260904201255 96 131 4.0 7.0 0.00 0.00 0.00 47 1011.2
20260904200750 97 85 0.0 2.0 0.00 0.00 0.00 48 1011.2
20260904200244 98 119 1.0 3.0 0.00 0.00 0.00 46 1011.2
20260904195744 99 76 0.0 2.0 0.00 0.00 0.00 45 1011.2
20260904195242 97 112 1.0 1.0 0.00 0.00 0.00 46 1011.5
20260904194738 97 89 2.0 6.0 0.00 0.00 0.00 45 1011.6
20260904194236 98 104 3.0 5.0 0.00 0.00 0.00 45 1011.6
20260904193732 98 100 1.0 1.0 0.00 0.00 0.00 45 1011.5
20260904193228 97 124 1.0 3.0 0.00 0.00 0.00 45 1011.6
20260904192723 97 88 2.0 5.0 0.00 0.00 0.00 46 1011.8
20260904192218 98 96 1.0 5.0 0.00 0.00 0.00 45 1011.8
20260904191715 98 183 1.0 2.0 0.00 0.00 0.00 44 1011.7
20260904191211 98 79 1.0 2.0 0.00 0.00 0.00 45 1011.7
20260904190707 97 340 1.0 3.0 0.00 0.00 0.00 47 1011.8
20260904190203 97 83 0.0 2.0 0.00 0.00 0.00 47 1011.9
20260904185659 96 63 1.0 1.0 0.00 0.00 0.00 48 1012.2
20260904185154 96 86 1.0 7.0 0.00 0.00 0.00 48 1012.2
20260904184652 96 97 2.0 6.0 0.00 0.00 0.00 48 1012.2
20260904184148 95 83 0.0 2.0 0.00 0.00 0.00 50 1012.3
20260904183644 95 80 1.0 6.0 0.00 0.00 0.00 49 1012.3
20260904183143 96 72 0.0 3.0 0.00 0.00 0.00 51 1012.4
20260904182639 96 83 2.0 3.0 0.00 0.00 0.00 51 1012.5
20260904182133 96 72 0.0 1.0 0.00 0.00 0.00 52 1012.5
20260904181629 96 73 0.0 2.0 0.00 0.00 0.00 51 1012.5
20260904181124 94 106 1.0 2.0 0.00 0.00 0.00 52 1012.7
20260904180620 94 136 1.0 2.0 0.00 0.00 0.00 53 1012.8
20260904180115 95 66 0.0 8.0 0.00 0.00 0.00 53 1013.0
20260904175614 95 80 0.0 1.0 0.00 0.00 0.00 52 1013.1
20260904175112 96 133 1.0 2.0 0.00 0.00 0.00 50 1013.4
20260904174607 95 69 0.0 0.0 0.00 0.00 0.00 50 1013.2
20260904174104 94 88 0.0 1.0 0.00 0.00 0.00 51 1013.2
20260904173604 94 66 0.0 2.0 0.00 0.00 0.00 52 1013.2
20260904173059 93 114 1.0 2.0 0.00 0.00 0.00 55 1013.2
20260904172555 94 116 3.0 5.0 0.00 0.00 0.00 53 1013.6
20260904172054 94 65 0.0 5.0 0.00 0.00 0.00 53 1013.5
20260904171549 93 167 0.0 2.0 0.00 0.00 0.00 54 1013.4
20260904171045 94 100 1.0 3.0 0.00 0.00 0.00 54 1013.6
20260904170540 93 68 1.0 3.0 0.00 0.00 0.00 54 1013.5
20260904170037 93 90 1.0 1.0 0.00 0.00 0.00 56 1013.7
20260904165535 92 52 2.0 3.0 0.00 0.00 0.00 57 1013.7
20260904165035 93 92 1.0 2.0 0.00 0.00 0.00 57 1013.6
20260904164530 92 73 0.0 5.0 0.00 0.00 0.00 59 1013.6
20260904164026 91 83 1.0 3.0 0.00 0.00 0.00 59 1013.6
20260904163525 92 83 0.0 6.0 0.00 0.00 0.00 58 1013.5
20260904163021 91 63 0.0 1.0 0.00 0.00 0.00 60 1013.8
20260904162515 91 102 1.0 5.0 0.00 0.00 0.00 60 1013.8
20260904162011 91 42 0.0 2.0 0.00 0.00 0.00 60 1013.7
20260904161506 91 68 0.0 5.0 0.00 0.00 0.00 61 1013.9
20260904161001 91 113 2.0 2.0 0.00 0.00 0.00 60 1013.7
20260904160455 90 55 1.0 1.0 0.00 0.00 0.00 63 1013.9
20260904155951 91 83 1.0 1.0 0.00 0.00 0.00 63 1013.7
20260904155451 90 125 3.0 5.0 0.00 0.00 0.00 63 1013.7
20260904154949 89 133 1.0 3.0 0.00 0.00 0.00 66 1013.7
20260904154444 89 67 1.0 5.0 0.00 0.00 0.00 68 1013.7
20260904153939 89 67 0.0 2.0 0.00 0.00 0.00 67 1013.8
20260904153434 89 70 0.0 3.0 0.00 0.00 0.00 67 1013.5
20260904152931 88 85 1.0 2.0 0.00 0.00 0.00 69 1013.5
20260904152426 87 121 3.0 3.0 0.00 0.00 0.00 70 1013.6
20260904151925 87 77 0.0 3.0 0.00 0.00 0.00 72 1013.7
20260904151421 87 121 1.0 2.0 0.00 0.00 0.00 73 1013.5
20260904150915 87 87 1.0 2.0 0.00 0.00 0.00 75 1013.6
20260904150411 87 63 0.0 3.0 0.00 0.00 0.00 75 1013.4
20260904145908 86 94 1.0 2.0 0.00 0.00 0.00 75 1013.7
20260904145405 86 62 1.0 2.0 0.00 0.00 0.00 77 1013.6
20260904144900 85 53 0.0 1.0 0.00 0.00 0.00 79 1013.7
20260904144356 85 82 2.0 3.0 0.00 0.00 0.00 78 1013.5
20260904143851 84 74 0.0 1.0 0.00 0.00 0.00 80 1013.5
20260904143348 84 85 0.0 1.0 0.00 0.00 0.00 81 1013.6
20260904142844 83 67 0.0 3.0 0.00 0.00 0.00 82 1013.6
20260904142339 83 70 1.0 1.0 0.00 0.00 0.00 84 1013.6
20260904141833 82 82 0.0 1.0 0.00 0.00 0.00 86 1013.6
20260904141329 82 88 0.0 1.0 0.00 0.00 0.00 86 1013.5
20260904140825 82 78 0.0 2.0 0.00 0.00 0.00 87 1013.7
20260904140320 81 115 1.0 2.0 0.00 0.00 0.00 88 1013.6
20260904135819 80 115 2.0 3.0 0.00 0.00 0.00 89 1013.8
20260904135314 80 103 2.0 2.0 0.00 0.00 0.00 90 1013.5
20260904134810 79 90 1.0 1.0 0.00 0.00 0.00 91 1013.5
20260904134310 79 105 1.0 2.0 0.00 0.00 0.00 91 1013.5
20260904133805 79 72 2.0 2.0 0.00 0.00 0.00 92 1013.3
20260904133300 78 78 0.0 3.0 0.00 0.00 0.00 92 1013.4
20260904132800 78 105 3.0 3.0 0.00 0.00 0.00 92 1013.5
20260904132255 78 79 1.0 2.0 0.00 0.00 0.00 93 1013.2
20260904131754 78 77 0.0 2.0 0.00 0.00 0.00 93 1013.2
20260904131250 78 68 0.0 1.0 0.00 0.00 0.00 93 1012.8
20260904130750 77 80 1.0 1.0 0.00 0.00 0.00 93 1013.1
20260904130250 77 62 0.0 1.0 0.00 0.00 0.00 93 1013.0
20260904125746 77 31 1.0 2.0 0.00 0.00 0.00 93 1012.8
20260904125241 77 106 1.0 2.0 0.00 0.00 0.00 93 1013.0
20260904124735 77 74 0.0 0.0 0.00 0.00 0.00 93 1012.8
20260904124232 77 77 1.0 1.0 0.00 0.00 0.00 93 1013.0
20260904123732 77 82 0.0 1.0 0.00 0.00 0.00 93 1012.7
20260904123227 76 74 0.0 1.0 0.00 0.00 0.00 92 1012.6
20260904122722 76 74 0.0 0.0 0.00 0.00 0.00 92 1012.8
20260904122216 76 71 0.0 2.0 0.00 0.00 0.00 92 1012.8
20260904121712 76 85 1.0 2.0 0.00 0.00 0.00 92 1012.6
20260904121207 76 71 0.0 1.0 0.00 0.00 0.00 92 1012.7
20260904120704 76 73 0.0 1.0 0.00 0.00 0.00 92 1012.7
20260904120200 76 84 0.0 1.0 0.00 0.00 0.00 91 1012.4
20260904115655 76 82 0.0 1.0 0.00 0.00 0.00 91 1012.7
20260904115149 76 89 1.0 1.0 0.00 0.00 0.00 91 1012.4
20260904114644 77 81 1.0 2.0 0.00 0.00 0.00 91 1012.6
20260904114143 77 74 0.0 1.0 0.00 0.00 0.00 91 1012.5
20260904113638 77 53 1.0 1.0 0.00 0.00 0.00 91 1012.4
20260904113137 77 76 0.0 0.0 0.00 0.00 0.00 90 1012.3
20260904112633 77 72 0.0 1.0 0.00 0.00 0.00 90 1012.2
20260904112129 77 74 0.0 0.0 0.00 0.00 0.00 90 1012.3
20260904111624 77 71 0.0 0.0 0.00 0.00 0.00 90 1012.4
20260904111120 77 65 0.0 1.0 0.00 0.00 0.00 89 1012.3
20260904110615 77 75 1.0 1.0 0.00 0.00 0.00 89 1012.2
20260904110115 77 84 0.0 1.0 0.00 0.00 0.00 89 1012.2
20260904105615 77 96 1.0 1.0 0.00 0.00 0.00 89 1012.2
20260904105109 77 73 0.0 1.0 0.00 0.00 0.00 88 1012.3
20260904104605 77 75 0.0 0.0 0.00 0.00 0.00 88 1012.1
20260904104100 77 79 1.0 1.0 0.00 0.00 0.00 88 1012.2
20260904103556 77 75 0.0 0.0 0.00 0.00 0.00 88 1012.1
20260904103052 77 66 0.0 1.0 0.00 0.00 0.00 88 1011.9
20260904102548 77 74 0.0 1.0 0.00 0.00 0.00 87 1011.9
20260904102043 77 76 0.0 1.0 0.00 0.00 0.00 87 1011.9
20260904101540 77 72 0.0 0.0 0.00 0.00 0.00 87 1012.1
20260904101035 77 74 0.0 0.0 0.00 0.00 0.00 87 1012.0
20260904100530 77 79 0.0 1.0 0.00 0.00 0.00 87 1011.9
20260904100020 77 79 1.0 1.0 0.00 0.00 0.00 86 1011.9
20260904095514 77 74 0.0 1.0 0.00 0.00 0.00 86 1012.0
20260904095010 78 77 0.0 0.0 0.00 0.00 0.00 86 1012.0
20260904094504 78 90 0.0 1.0 0.00 0.00 0.00 86 1012.0
20260904094000 78 76 0.0 1.0 0.00 0.00 0.00 86 1011.9
20260904093456 78 82 2.0 3.0 0.00 0.00 0.00 85 1011.8
20260904092951 78 80 0.0 1.0 0.00 0.00 0.00 85 1011.8
20260904092447 78 79 1.0 2.0 0.00 0.00 0.00 85 1012.0
20260904091943 78 76 0.0 1.0 0.00 0.00 0.00 85 1012.1
20260904091438 78 88 1.0 3.0 0.00 0.00 0.00 84 1011.9
20260904090932 78 87 0.0 1.0 0.00 0.00 0.00 84 1011.9
20260904090429 78 89 1.0 2.0 0.00 0.00 0.00 84 1011.9
20260904085923 78 82 0.0 1.0 0.00 0.00 0.00 84 1012.0